RH
11 13 15 14 13 11 8 6 5 5 5 5 5 6 6 6 6 6 7 9 14 22 30 35 38 38 36 33 33 32 24 16 12 8 6 8 10 13 14 14 12 12 10 11 10 11 11
3 3 3 3 3 2 2 2 2 3 3 3 3 3 3 3 4 6 6 6 6 6 7 8 9 10 10 13 12 15 31 35 23 16 12 9 8 12 14 14 14 13 13 12 12 11 11
2 2 2 2 2 2 2 2 2 2 2 3 3 3 4 5 6 7 8 10 13 15 13 6 6 7 9 8 9 10 9 12 36 33 20 16 11 10 11 13 14 14 15 15 13 13 14
2 2 2 2 2 2 2 2 2 2 2 2 2 3 3 4 6 11 14 17 14 12 15 21 15 6 6 7 8 12 13 13 19 37 37 23 16 13 13 16 16 16 18 16 14 15 16
2 2 2 2 2 2 2 2 2 2 2 2 2 4 6 12 20 25 26 27 28 28 25 25 25 21 14 12 13 17 18 20 24 25 22 21 18 17 16 17 18 18 20 18 17 16 17
2 2 2 2 2 2 2 2 4 6 7 7 9 15 21 26 26 26 25 28 29 30 30 29 26 22 20 16 16 16 15 15 17 27 23 21 21 19 17 20 21 17 19 20 20 21 22
2 2 2 2 2 2 3 6 8 7 8 11 18 26 29 27 25 22 20 21 22 24 26 28 28 27 27 25 24 23 21 19 18 24 30 36 39 29 21 25 21 22 25 27 32 30 27
3 2 2 2 2 4 6 9 13 20 19 22 28 30 28 24 23 21 20 19 19 21 18 20 20 22 25 28 28 28 28 29 28 24 23 30 33 25 37 44 47 47 43 38 35 26 23
2 2 2 2 2 6 9 8 9 12 24 30 32 29 25 22 21 18 19 16 17 17 20 17 19 24 26 27 28 29 30 32 32 33 30 30 28 32 35 40 40 33 32 29 25 24 27
2 1 2 2 3 6 6 6 15 24 27 34 31 27 23 21 17 17 14 14 12 14 24 24 28 31 33 34 30 29 31 37 42 42 48 49 39 44 46 45 43 42 38 30 28 33 36
1 1 2 3 7 11 20 26 33 36 38 35 28 26 24 22 20 17 14 11 8 15 48 27 29 30 32 35 33 34 34 34 35 41 42 34 32 32 33 29 30 29 31 32 37 41 44
5 16 25 30 32 34 36 38 39 38 34 31 28 27 26 22 22 17 14 9 9 22 46 27 31 31 32 33 36 38 39 39 39 43 44 39 38 38 37 41 42 39 43 44 46 48 60
22 23 26 29 34 38 39 39 37 35 33 32 32 31 29 27 22 19 14 8 15 24 22 28 26 29 35 38 45 47 53 54 50 57 56 53 48 46 46 47 46 48 50 58 58 68 57
18 24 28 33 37 37 37 37 36 35 33 31 30 28 25 24 22 20 15 12 16 16 14 22 26 33 39 40 42 45 50 51 54 58 64 62 54 36 41 44 47 46 50 51 58 69 51
33 37 38 39 37 35 32 29 27 26 25 24 24 23 23 22 20 21 20 17 15 14 15 14 15 15 19 24 31 45 45 45 48 47 58 54 60 47 43 51 54 56 58 50 53 60 63
41 41 38 34 30 29 29 28 27 26 25 24 23 23 20 20 22 24 26 22 21 21 20 19 24 21 25 32 36 46 46 51 56 64 66 64 66 62 56 57 62 59 56 57 58 75 79
33 31 30 31 30 30 28 27 25 23 21 20 18 17 22 22 26 29 33 29 28 29 31 38 47 43 42 49 55 60 56 62 73 75 81 83 89 78 72 69 68 64 62 62 64 62 72
29 28 27 26 26 25 23 20 16 14 11 13 16 27 35 34 32 33 32 41 42 48 46 47 49 52 68 75 77 78 71 68 54 47 64 75 76 85 74 72 75 77 78 75 85 82 91
23 22 20 18 15 13 10 7 5 5 19 42 64 71 64 48 43 39 50 64 74 63 61 70 81 85 84 85 96 96 96 92 90 88 95 90 97 93 73 76 77 85 91 94 97 97 95
16 12 8 5 3 3 3 4 5 17 96 97 100 99 95 92 81 96 100 89 83 84 84 84 73 82 92 92 97 94 98 91 83 94 92 97 96 90 82 66 80 88 86 91 94 98 83
3 2 2 2 3 4 5 6 8 27 96 100 98 96 99 87 82 87 81 81 85 91 95 97 97 98 90 99 99 93 76 91 97 97 97 99 96 94 90 90 95 93 75 72 86 73 97
1 2 2 2 4 5 6 11 50 95 94 100 100 99 95 96 97 92 86 83 80 70 91 85 88 76 88 97 86 83 84 96 95 89 96 96 96 96 92 74 66 68 63 66 67 67 84
2 2 4 5 8 30 64 84 93 92 98 97 96 92 97 86 96 96 91 85 79 78 74 78 88 97 96 89 96 95 96 91 91 93 85 93 95 96 93 83 88 99 72 69 79 75 88
3 4 7 16 89 100 96 91 89 90 94 98 97 97 97 90 95 86 96 96 85 77 92 83 92 94 73 89 87 94 96 80 78 62 71 91 96 97 94 96 95 72 66 64 75 98 100
5 6 16 42 86 89 90 90 88 94 82 81 85 98 97 96 91 87 97 97 97 88 93 95 73 83 97 92 97 97 83 82 59 55 54 81 100 96 96 91 90 82 78 81 90 94 94
11 24 38 57 69 76 84 83 86 73 70 75 81 98 97 96 96 97 94 92 93 92 90 88 90 95 93 97 100 97 94 80 79 73 62 62 88 99 96 96 95 83 89 100 100 96 93
21 22 29 36 45 54 62 68 74 63 68 67 60 92 97 96 77 88 98 97 89 100 96 92 82 80 88 96 97 96 94 90 90 81 81 91 96 95 89 96 95 98 99 97 97 94 88
17 18 20 24 27 32 37 48 57 59 51 67 65 93 100 90 81 98 96 85 95 97 95 92 96 88 98 97 89 92 95 95 95 91 97 94 96 98 100 96 96 94 98 95 96 97 100
19 24 30 34 41 45 49 53 58 60 65 75 85 96 96 97 92 90 99 95 97 99 98 95 96 98 98 98 95 94 94 98 95 95 96 97 97 96 97 97 97 97 98 98 97 99 97
Wind_Speed
10 11 12 12 13 14 15 16 17 18 19 20 22 23 24 24 25 26 27 29 30 31 31 32 32 33 32 30 25 25 25 24 25 24 23 22 23 22 24 24 24 28 27 27 27 27 28
10 12 13 15 16 18 18 20 21 22 23 24 25 26 27 28 29 29 30 32 32 32 32 33 34 34 33 32 28 26 26 25 25 24 23 23 24 24 27 27 27 30 30 29 29 28 30
13 15 18 20 21 22 24 25 26 27 28 28 28 29 30 32 34 36 37 38 38 36 35 35 34 36 37 30 30 29 27 27 26 25 25 26 26 25 28 28 26 29 30 27 28 26 28
15 17 19 21 24 25 26 27 29 30 32 33 34 35 37 39 42 43 42 44 46 44 40 37 36 36 38 35 32 29 26 26 26 27 28 28 27 28 29 30 28 31 32 33 29 25 24
21 21 23 25 26 27 28 30 31 33 34 36 37 40 42 45 45 42 38 38 40 40 40 36 36 35 35 27 20 18 17 16 18 20 23 25 27 28 29 29 25 27 27 29 29 30 29
23 25 26 27 28 30 31 32 34 36 39 41 43 43 42 42 42 39 33 30 32 33 33 32 33 28 19 17 18 23 29 31 27 24 21 20 21 22 26 26 25 27 26 28 32 32 33
26 26 28 29 31 32 34 37 39 40 41 42 42 40 38 36 35 34 32 28 28 30 26 27 28 32 31 31 32 34 32 32 31 32 32 30 32 34 28 27 28 32 36 39 38 35 38
28 30 30 31 31 33 35 38 40 43 42 41 39 36 33 30 30 30 30 29 29 30 31 26 30 35 35 35 37 35 36 36 36 36 34 36 43 37 34 35 35 37 38 40 39 31 29
30 32 32 33 34 37 38 40 42 42 42 38 37 35 31 28 28 28 27 27 27 29 32 27 25 20 17 19 22 22 23 26 28 30 32 37 37 29 28 31 31 33 31 31 28 26 27
31 33 34 35 38 40 42 43 44 42 40 37 33 33 32 27 28 26 25 24 23 23 22 8 6 5 5 4 6 7 9 14 19 19 22 24 26 34 33 35 35 36 33 28 21 17 11
34 36 37 39 41 44 44 44 43 39 34 31 30 30 30 31 27 26 24 22 19 19 7 8 9 10 12 11 11 10 11 12 15 15 14 9 10 9 12 11 11 19 13 16 17 17 20
37 40 43 43 43 42 41 39 36 33 32 30 30 30 29 29 28 25 24 19 14 6 8 6 9 10 12 13 13 13 12 14 14 16 21 20 21 19 18 17 14 15 12 15 20 16 7
40 42 42 42 41 39 37 35 34 33 32 32 31 32 32 31 28 25 23 16 9 8 7 8 13 15 17 17 18 19 19 20 17 10 15 16 21 23 23 23 23 22 16 3 3 4 6
41 41 40 40 38 37 36 36 36 36 36 36 35 34 33 32 30 28 22 14 12 12 16 20 20 20 21 19 21 22 24 26 25 24 25 14 11 18 16 23 16 17 25 10 7 4 3
41 42 41 39 36 36 37 38 40 40 40 39 38 36 35 33 32 27 23 17 15 17 19 19 21 24 23 17 18 16 21 27 26 22 20 9 10 13 17 14 17 11 17 20 8 4 1
41 40 39 39 40 41 42 42 44 44 44 44 43 38 38 35 29 25 25 30 24 24 25 26 24 15 17 16 14 9 10 9 12 19 21 15 14 19 19 19 15 15 9 7 9 4 5
39 39 41 42 42 45 46 45 47 49 51 50 50 43 37 34 28 25 28 30 30 26 27 24 21 21 23 21 20 20 14 11 11 13 13 15 15 12 11 14 15 16 20 14 10 9 4
41 42 42 44 45 47 49 49 51 53 53 55 52 45 32 32 30 30 33 31 28 26 23 24 27 27 26 23 25 23 25 26 20 18 15 17 13 12 18 16 21 22 20 21 11 6 8
43 44 46 47 49 50 51 51 50 48 44 45 46 47 35 14 26 30 29 29 29 31 28 25 20 17 15 17 13 13 15 12 14 20 13 14 11 6 4 5 16 20 17 15 12 8 6
47 48 50 50 50 49 47 46 42 37 26 33 38 32 37 32 17 18 21 26 25 21 21 20 27 25 23 25 25 24 23 19 19 20 24 21 22 18 14 9 5 9 14 17 15 9 14
49 51 51 51 50 48 46 44 39 33 21 27 37 42 39 33 35 32 28 26 30 31 29 25 22 17 26 29 25 27 29 30 29 30 27 24 19 23 24 19 20 21 26 27 25 27 20
51 52 52 51 49 47 44 40 32 24 24 32 36 38 40 45 41 37 31 31 30 28 28 32 32 27 26 31 31 34 30 31 21 18 15 12 8 13 22 21 23 27 28 28 29 29 29
52 51 48 46 44 43 36 32 25 19 24 33 38 42 40 42 46 45 41 33 28 28 28 25 30 30 32 26 26 27 21 23 24 24 23 22 21 16 13 19 19 17 26 28 29 26 24
48 46 44 42 34 32 33 31 27 22 28 32 33 35 36 40 40 44 38 32 30 30 31 29 32 35 33 36 36 32 28 26 27 27 25 27 28 25 18 15 6 14 16 18 19 17 17
43 40 36 34 30 30 30 29 27 26 22 30 38 36 35 40 31 38 36 37 34 36 32 33 32 32 29 33 27 22 24 22 24 16 19 25 28 21 6 13 13 15 14 12 13 14 14
34 31 31 29 27 26 27 26 25 24 27 30 30 34 35 34 30 32 29 32 28 30 28 27 20 21 21 24 22 20 10 10 6 7 11 13 17 26 11 5 6 9 17 15 14 10 11
29 29 29 28 28 27 26 25 25 26 28 29 27 25 27 31 34 32 26 28 27 25 26 25 24 23 25 15 20 9 7 11 9 12 12 16 14 24 25 13 8 10 11 10 7 6 12
26 26 26 27 26 26 26 26 26 26 24 22 22 19 24 35 35 27 20 27 24 25 25 24 26 13 8 12 12 13 10 6 10 16 13 13 10 13 14 12 7 9 10 11 9 9 12
28 28 27 27 27 27 26 24 23 23 22 20 23 21 19 14 19 17 24 21 21 25 26 27 29 27 28 25 10 20 11 11 12 13 19 13 12 7 7 8 11 9 14 14 12 10 12
Wind_Direction
353 353 350 348 347 343 340 338 335 331 327 324 322 320 318 316 314 312 310 308 305 304 301 299 299 298 298 296 297 290 288 285 282 275 275 271 270 269 267 269 269 269 278 276 279 278 280
359 356 351 346 342 337 333 330 328 326 323 321 321 320 318 317 315 313 310 306 302 299 296 296 296 295 294 297 298 294 286 283 278 275 275 273 270 266 268 269 269 276 276 276 276 279 280
347 345 342 339 337 336 334 332 330 328 325 323 321 319 318 317 315 313 309 304 300 298 295 291 290 290 291 297 296 294 287 280 275 274 272 268 265 263 267 272 271 273 274 274 277 283 285
334 334 335 335 334 331 330 329 328 327 326 325 324 322 320 315 311 307 302 297 293 293 293 293 291 288 290 296 294 284 276 272 268 266 264 263 261 260 264 267 266 272 275 277 286 291 288
330 331 332 332 331 328 327 328 328 326 324 322 321 320 318 316 314 313 309 301 296 293 293 293 290 288 289 288 283 279 276 277 276 273 266 262 258 257 261 260 263 266 266 279 292 290 292
325 326 327 326 325 326 326 327 326 325 324 323 323 322 321 319 318 318 319 312 306 303 298 294 290 286 276 269 271 271 275 277 271 266 259 258 256 251 251 251 244 264 274 282 283 286 286
321 320 320 321 322 323 324 326 325 323 322 321 322 322 322 320 320 321 321 319 316 311 310 301 290 282 278 276 270 269 268 266 262 257 257 263 255 249 261 272 271 270 273 277 280 284 285
318 317 317 317 318 320 322 322 322 322 321 322 322 322 322 321 321 321 323 324 323 316 312 300 289 279 274 269 268 270 268 266 265 262 259 254 253 264 263 260 263 267 269 270 279 286 285
315 315 314 315 316 317 318 319 320 321 323 324 323 323 323 323 323 323 323 322 321 317 312 308 292 285 276 272 274 272 269 264 263 260 259 258 261 264 259 256 253 258 258 269 280 287 283
315 315 313 313 314 315 315 317 318 317 319 322 322 322 323 325 323 324 319 319 318 317 311 302 295 298 284 278 280 278 270 259 254 263 257 265 265 257 255 253 253 261 266 274 264 271 266
315 314 313 313 314 316 317 317 319 317 319 322 323 322 323 322 324 322 319 318 316 324 329 289 264 267 271 284 279 275 266 259 263 262 249 263 264 238 237 262 270 264 254 258 264 263 276
316 316 315 317 320 321 322 323 322 321 320 321 321 319 319 319 321 319 317 313 309 309 254 257 250 258 266 269 272 269 260 257 264 258 255 258 258 256 258 263 258 251 251 265 278 265 261
318 318 320 322 323 323 323 323 322 320 318 318 318 316 317 317 316 314 308 298 285 216 262 250 259 263 262 262 263 262 265 257 254 269 271 273 264 265 257 254 247 243 240 273 249 181 233
319 318 319 319 320 320 319 319 318 317 316 315 315 314 313 312 312 308 299 277 236 263 247 265 273 270 273 270 270 265 259 257 255 256 264 268 266 254 247 234 246 235 228 197 225 198 200
318 317 317 317 316 316 315 316 314 314 314 312 312 312 310 310 308 301 288 242 269 279 271 270 277 284 279 269 252 259 260 265 262 255 239 244 252 238 233 221 217 216 215 233 262 280 219
316 317 317 318 317 316 315 315 312 311 310 309 307 307 306 307 301 291 277 265 261 272 274 279 279 273 268 257 260 262 259 269 253 244 240 252 267 254 231 210 209 224 217 203 200 208 221
320 317 315 315 314 313 311 310 309 309 308 307 307 308 306 300 293 284 268 271 276 275 276 277 276 268 267 270 270 269 258 254 248 255 246 244 247 249 217 227 240 251 246 231 231 234 226
315 314 314 312 311 309 309 308 307 307 307 307 305 305 307 297 284 278 275 283 283 279 275 270 272 273 272 275 276 267 259 254 260 264 265 250 262 251 257 253 249 249 247 244 241 235 219
312 311 310 308 307 306 305 304 304 307 307 306 306 307 313 296 285 287 281 278 280 282 281 277 266 270 275 281 279 264 261 267 260 257 250 244 232 252 259 231 236 241 245 245 245 265 237
311 310 309 309 309 309 309 309 310 308 307 298 299 295 299 307 295 276 288 293 290 292 290 287 275 270 271 265 257 264 269 277 272 266 262 246 237 238 243 250 215 219 233 274 277 259 266
312 312 312 312 312 311 310 309 306 303 295 278 282 287 292 283 287 297 295 289 283 282 281 286 265 265 285 280 275 275 278 279 266 262 259 251 262 265 262 254 258 268 270 273 271 268 254
314 313 314 313 313 311 308 304 303 301 285 269 276 278 280 290 288 294 288 292 294 305 287 291 282 282 281 271 277 282 263 287 304 276 298 277 275 287 280 270 269 271 272 270 267 268 265
315 315 316 313 311 310 312 312 304 281 278 286 286 283 284 281 282 284 280 288 299 301 296 298 293 283 279 277 283 266 277 282 287 288 289 281 278 276 273 285 274 261 258 258 257 255 254
317 318 319 319 314 312 317 318 314 298 274 280 293 299 287 279 279 281 281 287 295 294 293 285 288 287 286 285 277 281 290 282 283 282 273 261 263 264 262 266 233 249 254 254 250 244 239
326 323 325 328 325 320 318 317 315 311 304 280 277 288 302 280 287 283 292 294 297 297 290 285 287 297 293 301 295 289 284 281 287 283 272 252 246 254 244 230 260 258 246 235 226 231 242
331 336 337 334 330 328 325 323 322 317 309 296 289 282 294 307 298 300 296 293 306 305 307 302 306 303 313 295 285 251 232 262 269 276 288 273 240 239 229 222 219 249 240 236 223 227 246
347 346 344 344 341 337 331 327 321 318 318 312 305 301 304 308 304 300 306 312 306 304 291 301 316 305 307 295 253 249 241 254 244 260 267 257 242 224 245 247 235 245 221 203 204 216 223
1 359 356 352 346 340 334 328 323 319 321 318 320 311 306 302 295 298 296 303 307 298 295 295 316 326 292 283 283 274 258 238 252 256 256 245 234 231 230 226 224 240 211 209 212 202 212
2 360 357 354 351 349 347 345 342 338 332 326 322 327 314 321 314 310 305 308 293 294 294 291 284 280 282 280 298 293 269 267 266 263 262 244 241 221 207 190 185 186 209 216 223 232 254